| time (UTC) | temp C | wind direction | speed KPH | gust KPH | rain 1hr cm | rain 24hr cm | rain mn cm | humidity % | barometer mb |
| 20260510153043 | 20 | 61 | 11.3 | 20.9 | 0.00 | 0.00 | 0.00 | 54 | 1017.5 |
| 20260510152151 | 20 | 38 | 11.3 | 24.1 | 0.00 | 0.00 | 0.00 | 54 | 1017.5 |
| 20260510151724 | 20 | 58 | 8.0 | 22.5 | 0.00 | 0.00 | 0.00 | 55 | 1017.5 |
| 20260510151045 | 20 | 60 | 9.7 | 24.1 | 0.00 | 0.00 | 0.00 | 55 | 1017.5 |
| 20260510150151 | 19 | 59 | 11.3 | 20.9 | 0.00 | 0.00 | 0.00 | 55 | 1017.5 |
| 20260510145511 | 20 | 65 | 8.0 | 20.9 | 0.00 | 0.00 | 0.00 | 57 | 1017.5 |
| 20260510145041 | 19 | 67 | 8.0 | 20.9 | 0.00 | 0.00 | 0.00 | 58 | 1017.1 |
| 20260510144151 | 19 | 70 | 11.3 | 20.9 | 0.00 | 0.00 | 0.00 | 58 | 1017.1 |
| 20260510143723 | 19 | 48 | 11.3 | 22.5 | 0.00 | 0.00 | 0.00 | 59 | 1017.1 |
| 20260510143043 | 18 | 80 | 9.7 | 19.3 | 0.00 | 0.00 | 0.00 | 60 | 1017.1 |
| 20260510142151 | 18 | 69 | 9.7 | 19.3 | 0.00 | 0.00 | 0.00 | 60 | 1016.8 |
| 20260510141511 | 18 | 90 | 9.7 | 17.7 | 0.00 | 0.00 | 0.00 | 61 | 1016.8 |
| 20260510140831 | 18 | 42 | 9.7 | 17.7 | 0.00 | 0.00 | 0.00 | 62 | 1016.8 |
| 20260510140401 | 18 | 54 | 11.3 | 17.7 | 0.00 | 0.00 | 0.00 | 62 | 1016.8 |
| 20260510135511 | 18 | 42 | 8.0 | 19.3 | 0.00 | 0.00 | 0.00 | 64 | 1016.4 |
| 20260510134831 | 17 | 44 | 8.0 | 17.7 | 0.00 | 0.00 | 0.00 | 64 | 1016.4 |
| 20260510134616 | 17 | 51 | 8.0 | 22.5 | 0.00 | 0.00 | 0.00 | 65 | 1016.1 |
| 20260510133511 | 17 | 58 | 6.4 | 19.3 | 0.00 | 0.00 | 0.00 | 65 | 1016.1 |
| 20260510132831 | 17 | 53 | 8.0 | 16.1 | 0.00 | 0.00 | 0.00 | 64 | 1016.1 |
| 20260510132618 | 17 | 56 | 6.4 | 17.7 | 0.00 | 0.00 | 0.00 | 64 | 1016.1 |
| 20260510131511 | 17 | 50 | 9.7 | 16.1 | 0.00 | 0.00 | 0.00 | 64 | 1015.7 |
| 20260510131041 | 17 | 31 | 6.4 | 11.3 | 0.00 | 0.00 | 0.00 | 64 | 1015.7 |
| 20260510130150 | 17 | 43 | 6.4 | 12.9 | 0.00 | 0.00 | 0.00 | 65 | 1015.7 |
| 20260510125722 | 16 | 54 | 6.4 | 11.3 | 0.00 | 0.00 | 0.00 | 66 | 1015.4 |
| 20260510125256 | 16 | 58 | 4.8 | 8.0 | 0.00 | 0.00 | 0.00 | 70 | 1015.4 |
| 20260510124617 | 15 | 45 | 3.2 | 6.4 | 0.00 | 0.00 | 0.00 | 74 | 1015.4 |
| 20260510123510 | 15 | 46 | 4.8 | 6.4 | 0.00 | 0.00 | 0.00 | 76 | 1015.4 |
| 20260510122830 | 14 | 66 | 3.2 | 8.0 | 0.00 | 0.00 | 0.00 | 78 | 1015.4 |
| 20260510122150 | 14 | 57 | 4.8 | 12.9 | 0.00 | 0.00 | 0.00 | 78 | 1015.4 |
| 20260510121510 | 13 | 46 | 6.4 | 12.9 | 0.00 | 0.00 | 0.00 | 80 | 1015.4 |
| 20260510120830 | 13 | 49 | 3.2 | 6.4 | 0.00 | 0.00 | 0.00 | 80 | 1015.1 |
| 20260510120150 | 13 | 56 | 4.8 | 6.4 | 0.00 | 0.00 | 0.00 | 80 | 1015.1 |
| 20260510115723 | 13 | 51 | 3.2 | 6.4 | 0.00 | 0.00 | 0.00 | 80 | 1015.1 |
| 20260510115044 | 13 | 50 | 3.2 | 6.4 | 0.00 | 0.00 | 0.00 | 81 | 1015.1 |
| 20260510114150 | 13 | 58 | 3.2 | 4.8 | 0.00 | 0.00 | 0.00 | 80 | 1015.1 |
| 20260510113720 | 13 | 57 | 3.2 | 4.8 | 0.00 | 0.00 | 0.00 | 81 | 1015.1 |
| 20260510113040 | 13 | 56 | 1.6 | 4.8 | 0.00 | 0.00 | 0.00 | 81 | 1014.7 |
| 20260510112401 | 13 | 50 | 1.6 | 4.8 | 0.00 | 0.00 | 0.00 | 81 | 1014.7 |
| 20260510111510 | 13 | 47 | 1.6 | 4.8 | 0.00 | 0.00 | 0.00 | 81 | 1014.7 |
| 20260510110830 | 13 | 61 | 1.6 | 3.2 | 0.00 | 0.00 | 0.00 | 81 | 1014.7 |
| 20260510110150 | 12 | 68 | 1.6 | 3.2 | 0.00 | 0.00 | 0.00 | 81 | 1014.7 |
| 20260510105724 | 12 | 70 | 1.6 | 3.2 | 0.00 | 0.00 | 0.00 | 80 | 1014.4 |
| 20260510104829 | 12 | 57 | 1.6 | 6.4 | 0.00 | 0.00 | 0.00 | 80 | 1014.7 |
| 20260510104150 | 12 | 59 | 3.2 | 6.4 | 0.00 | 0.00 | 0.00 | 80 | 1014.4 |
| 20260510103720 | 12 | 56 | 3.2 | 4.8 | 0.00 | 0.00 | 0.00 | 81 | 1014.4 |
| 20260510102830 | 12 | 59 | 3.2 | 4.8 | 0.00 | 0.00 | 0.00 | 80 | 1014.0 |
| 20260510102150 | 12 | 60 | 3.2 | 4.8 | 0.00 | 0.00 | 0.00 | 80 | 1014.4 |
| 20260510101510 | 12 | 56 | 3.2 | 4.8 | 0.00 | 0.00 | 0.00 | 80 | 1014.0 |
| 20260510100830 | 12 | 84 | 3.2 | 3.2 | 0.00 | 0.00 | 0.00 | 79 | 1014.0 |
| 20260510100150 | 12 | 4 | 1.6 | 3.2 | 0.00 | 0.00 | 0.00 | 80 | 1013.7 |
| 20260510095719 | 12 | 37 | 1.6 | 4.8 | 0.00 | 0.00 | 0.00 | 80 | 1013.7 |
| 20260510095040 | 12 | 46 | 3.2 | 4.8 | 0.00 | 0.00 | 0.00 | 80 | 1013.7 |
| 20260510094150 | 12 | 43 | 3.2 | 4.8 | 0.00 | 0.00 | 0.00 | 79 | 1013.3 |
| 20260510093510 | 12 | 55 | 3.2 | 4.8 | 0.00 | 0.00 | 0.00 | 79 | 1013.3 |
| 20260510093042 | 12 | 64 | 3.2 | 4.8 | 0.00 | 0.00 | 0.00 | 79 | 1013.3 |
| 20260510092403 | 12 | 47 | 3.2 | 4.8 | 0.00 | 0.00 | 0.00 | 79 | 1013.3 |
| 20260510091510 | 13 | 63 | 3.2 | 4.8 | 0.00 | 0.00 | 0.00 | 77 | 1013.7 |
| 20260510091044 | 13 | 42 | 1.6 | 3.2 | 0.00 | 0.00 | 0.00 | 75 | 1013.7 |
| 20260510090359 | 13 | 34 | 3.2 | 3.2 | 0.00 | 0.00 | 0.00 | 75 | 1013.7 |
| 20260510085510 | 13 | 61 | 1.6 | 4.8 | 0.00 | 0.00 | 0.00 | 75 | 1013.7 |
| 20260510084830 | 13 | 41 | 3.2 | 6.4 | 0.00 | 0.00 | 0.00 | 77 | 1013.7 |
| 20260510084150 | 12 | 70 | 3.2 | 8.0 | 0.00 | 0.00 | 0.00 | 79 | 1013.7 |
| 20260510083510 | 12 | 48 | 4.8 | 12.9 | 0.00 | 0.00 | 0.00 | 79 | 1013.7 |
| 20260510082830 | 12 | 44 | 6.4 | 12.9 | 0.00 | 0.00 | 0.00 | 80 | 1013.7 |
| 20260510082150 | 12 | 49 | 8.0 | 12.9 | 0.00 | 0.00 | 0.00 | 81 | 1013.3 |
| 20260510081510 | 12 | 53 | 8.0 | 12.9 | 0.00 | 0.00 | 0.00 | 80 | 1013.3 |
| 20260510080830 | 12 | 49 | 6.4 | 9.7 | 0.00 | 0.00 | 0.00 | 81 | 1013.3 |
| 20260510080150 | 12 | 51 | 6.4 | 9.7 | 0.00 | 0.00 | 0.00 | 80 | 1013.0 |
| 20260510075510 | 12 | 52 | 6.4 | 11.3 | 0.00 | 0.00 | 0.00 | 80 | 1013.0 |
| 20260510074830 | 12 | 52 | 8.0 | 11.3 | 0.00 | 0.00 | 0.00 | 79 | 1012.6 |
| 20260510074150 | 12 | 54 | 9.7 | 11.3 | 0.00 | 0.00 | 0.00 | 79 | 1012.6 |
| 20260510073723 | 12 | 45 | 4.8 | 9.7 | 0.00 | 0.00 | 0.00 | 79 | 1012.6 |
| 20260510072830 | 12 | 60 | 4.8 | 9.7 | 0.00 | 0.00 | 0.00 | 78 | 1012.6 |
| 20260510072617 | 12 | 54 | 6.4 | 8.0 | 0.00 | 0.00 | 0.00 | 78 | 1012.6 |
| 20260510071933 | 13 | 57 | 3.2 | 6.4 | 0.00 | 0.00 | 0.00 | 77 | 1013.0 |
| 20260510070830 | 12 | 57 | 4.8 | 8.0 | 0.00 | 0.00 | 0.00 | 78 | 1012.6 |
| 20260510070150 | 13 | 60 | 4.8 | 8.0 | 0.00 | 0.00 | 0.00 | 77 | 1012.6 |
| 20260510065510 | 13 | 60 | 4.8 | 8.0 | 0.00 | 0.00 | 0.00 | 77 | 1012.6 |
| 20260510064830 | 13 | 63 | 4.8 | 6.4 | 0.00 | 0.00 | 0.00 | 76 | 1012.6 |
| 20260510064403 | 13 | 64 | 4.8 | 8.0 | 0.00 | 0.00 | 0.00 | 76 | 1013.0 |
| 20260510063510 | 13 | 62 | 4.8 | 9.7 | 0.00 | 0.00 | 0.00 | 75 | 1013.0 |
| 20260510063257 | 13 | 65 | 6.4 | 9.7 | 0.00 | 0.00 | 0.00 | 74 | 1013.0 |
| 20260510062150 | 13 | 45 | 4.8 | 8.0 | 0.00 | 0.00 | 0.00 | 76 | 1013.0 |
| 20260510061720 | 13 | 60 | 4.8 | 6.4 | 0.00 | 0.00 | 0.00 | 74 | 1013.0 |
| 20260510060830 | 13 | 52 | 4.8 | 6.4 | 0.00 | 0.00 | 0.00 | 73 | 1013.0 |
| 20260510060150 | 14 | 51 | 4.8 | 6.4 | 0.00 | 0.00 | 0.00 | 72 | 1013.0 |
| 20260510055935 | 14 | 47 | 4.8 | 6.4 | 0.00 | 0.00 | 0.00 | 72 | 1013.0 |
| 20260510054830 | 14 | 49 | 4.8 | 6.4 | 0.00 | 0.00 | 0.00 | 70 | 1013.0 |
| 20260510054616 | 15 | 48 | 3.2 | 4.8 | 0.00 | 0.00 | 0.00 | 68 | 1013.0 |
| 20260510053510 | 15 | 291 | 1.6 | 4.8 | 0.00 | 0.00 | 0.00 | 64 | 1013.0 |
| 20260510052830 | 16 | 67 | 1.6 | 8.0 | 0.00 | 0.00 | 0.00 | 62 | 1013.0 |
| 20260510052613 | 17 | 319 | 3.2 | 9.7 | 0.00 | 0.00 | 0.00 | 57 | 1013.0 |
| 20260510051721 | 15 | 290 | 4.8 | 9.7 | 0.00 | 0.00 | 0.00 | 63 | 1013.0 |
| 20260510050830 | 15 | 165 | 1.6 | 6.4 | 0.00 | 0.00 | 0.00 | 68 | 1013.0 |
| 20260510050150 | 13 | 39 | 3.2 | 8.0 | 0.00 | 0.00 | 0.00 | 73 | 1012.6 |
| 20260510045510 | 13 | 53 | 4.8 | 8.0 | 0.00 | 0.00 | 0.00 | 75 | 1012.6 |
| 20260510044830 | 13 | 50 | 4.8 | 8.0 | 0.00 | 0.00 | 0.00 | 75 | 1012.6 |
| 20260510044404 | 13 | 58 | 4.8 | 9.7 | 0.00 | 0.00 | 0.00 | 76 | 1012.6 |
| 20260510043510 | 13 | 51 | 4.8 | 9.7 | 0.00 | 0.00 | 0.00 | 76 | 1012.3 |
| 20260510042830 | 13 | 50 | 6.4 | 8.0 | 0.00 | 0.00 | 0.00 | 75 | 1012.3 |
| 20260510042150 | 13 | 52 | 4.8 | 9.7 | 0.00 | 0.00 | 0.00 | 75 | 1012.6 |
| 20260510041510 | 13 | 53 | 6.4 | 9.7 | 0.00 | 0.00 | 0.00 | 76 | 1012.3 |
| 20260510040830 | 13 | 50 | 4.8 | 8.0 | 0.00 | 0.00 | 0.00 | 76 | 1012.3 |
| 20260510040150 | 14 | 55 | 4.8 | 8.0 | 0.00 | 0.00 | 0.00 | 76 | 1012.3 |
| 20260510035724 | 14 | 52 | 4.8 | 8.0 | 0.00 | 0.00 | 0.00 | 76 | 1012.6 |
| 20260510034830 | 14 | 55 | 6.4 | 8.0 | 0.00 | 0.00 | 0.00 | 76 | 1012.6 |
| 20260510034400 | 14 | 55 | 6.4 | 8.0 | 0.00 | 0.00 | 0.00 | 76 | 1012.6 |
| 20260510033510 | 14 | 55 | 6.4 | 8.0 | 0.00 | 0.00 | 0.00 | 75 | 1012.3 |
| 20260510032830 | 15 | 62 | 4.8 | 6.4 | 0.00 | 0.00 | 0.00 | 74 | 1012.3 |
| 20260510032402 | 15 | 47 | 1.6 | 4.8 | 0.00 | 0.00 | 0.00 | 72 | 1012.3 |
| 20260510031510 | 15 | 56 | 3.2 | 6.4 | 0.00 | 0.00 | 0.00 | 70 | 1012.3 |
| 20260510031043 | 15 | 51 | 4.8 | 6.4 | 0.00 | 0.00 | 0.00 | 72 | 1011.9 |
| 20260510030150 | 16 | 58 | 4.8 | 8.0 | 0.00 | 0.00 | 0.00 | 70 | 1011.9 |
| 20260510025719 | 15 | 52 | 4.8 | 8.0 | 0.00 | 0.00 | 0.00 | 71 | 1011.9 |
| 20260510025040 | 16 | 53 | 4.8 | 6.4 | 0.00 | 0.00 | 0.00 | 70 | 1011.6 |
| 20260510024400 | 16 | 67 | 4.8 | 6.4 | 0.00 | 0.00 | 0.00 | 69 | 1011.6 |
| 20260510023721 | 16 | 59 | 3.2 | 4.8 | 0.00 | 0.00 | 0.00 | 68 | 1011.6 |
| 20260510022830 | 16 | 49 | 3.2 | 4.8 | 0.00 | 0.00 | 0.00 | 66 | 1011.2 |
| 20260510022150 | 16 | 65 | 3.2 | 8.0 | 0.00 | 0.00 | 0.00 | 66 | 1011.2 |
| 20260510021510 | 17 | 57 | 4.8 | 8.0 | 0.00 | 0.00 | 0.00 | 66 | 1011.2 |
| 20260510021044 | 17 | 52 | 6.4 | 8.0 | 0.00 | 0.00 | 0.00 | 65 | 1010.9 |
| 20260510020150 | 17 | 57 | 4.8 | 6.4 | 0.00 | 0.00 | 0.00 | 62 | 1010.9 |
| 20260510015510 | 18 | 63 | 4.8 | 8.0 | 0.00 | 0.00 | 0.00 | 61 | 1010.9 |
| 20260510014830 | 18 | 56 | 3.2 | 6.4 | 0.00 | 0.00 | 0.00 | 59 | 1010.9 |
| 20260510014150 | 19 | 49 | 3.2 | 4.8 | 0.00 | 0.00 | 0.00 | 56 | 1010.9 |
| 20260510013510 | 20 | 53 | 1.6 | 4.8 | 0.00 | 0.00 | 0.00 | 55 | 1010.5 |
| 20260510012830 | 20 | 49 | 1.6 | 4.8 | 0.00 | 0.00 | 0.00 | 53 | 1010.5 |
| 20260510012150 | 21 | 65 | 1.6 | 3.2 | 0.00 | 0.00 | 0.00 | 48 | 1010.5 |
| 20260510011510 | 23 | 359 | 1.6 | 3.2 | 0.00 | 0.00 | 0.00 | 43 | 1010.5 |
| 20260510011039 | 23 | 260 | 1.6 | 4.8 | 0.00 | 0.00 | 0.00 | 38 | 1010.5 |
| 20260510010400 | 23 | 245 | 3.2 | 4.8 | 0.00 | 0.00 | 0.00 | 37 | 1010.5 |
| 20260510005510 | 24 | 248 | 1.6 | 9.7 | 0.00 | 0.00 | 0.00 | 36 | 1010.5 |
| 20260510004830 | 25 | 245 | 4.8 | 9.7 | 0.00 | 0.00 | 0.00 | 35 | 1010.5 |
| 20260510004402 | 25 | 255 | 1.6 | 9.7 | 0.00 | 0.00 | 0.00 | 33 | 1010.5 |
| 20260510003510 | 25 | 254 | 3.2 | 9.7 | 0.00 | 0.00 | 0.00 | 33 | 1010.5 |
| 20260510003043 | 26 | 247 | 4.8 | 12.9 | 0.00 | 0.00 | 0.00 | 32 | 1010.2 |
| 20260510002150 | 26 | 249 | 3.2 | 9.7 | 0.00 | 0.00 | 0.00 | 32 | 1010.2 |
| 20260510001510 | 26 | 230 | 6.4 | 9.7 | 0.00 | 0.00 | 0.00 | 30 | 1010.2 |
| 20260510001040 | 27 | 242 | 4.8 | 8.0 | 0.00 | 0.00 | 0.00 | 29 | 1010.2 |
| 20260510000150 | 27 | 259 | 3.2 | 11.3 | 0.00 | 0.00 | 0.00 | 30 | 1010.2 |
| 20260509235510 | 27 | 242 | 8.0 | 11.3 | 0.00 | 0.00 | 0.00 | 29 | 1010.2 |
| 20260509234830 | 27 | 261 | 3.2 | 9.7 | 0.00 | 0.00 | 0.00 | 28 | 1010.2 |
| 20260509234150 | 27 | 261 | 6.4 | 9.7 | 0.00 | 0.00 | 0.00 | 28 | 1010.2 |
| 20260509233510 | 27 | 246 | 3.2 | 11.3 | 0.00 | 0.00 | 0.00 | 27 | 1010.2 |
| 20260509232830 | 27 | 274 | 3.2 | 12.9 | 0.00 | 0.00 | 0.00 | 28 | 1010.2 |
| 20260509232150 | 27 | 281 | 6.4 | 12.9 | 0.00 | 0.00 | 0.00 | 26 | 1010.2 |
| 20260509231510 | 27 | 283 | 4.8 | 14.5 | 0.00 | 0.00 | 0.00 | 26 | 1010.2 |
| 20260509230830 | 27 | 221 | 1.6 | 9.7 | 0.00 | 0.00 | 0.00 | 24 | 1010.2 |
| 20260509230150 | 27 | 143 | 3.2 | 9.7 | 0.00 | 0.00 | 0.00 | 24 | 1010.2 |
| 20260509225935 | 27 | 181 | 4.8 | 12.9 | 0.00 | 0.00 | 0.00 | 24 | 1010.2 |
| 20260509224830 | 27 | 176 | 6.4 | 12.9 | 0.00 | 0.00 | 0.00 | 24 | 1010.2 |
| 20260509224150 | 27 | 135 | 4.8 | 16.1 | 0.00 | 0.00 | 0.00 | 24 | 1009.8 |
| 20260509223510 | 27 | 149 | 9.7 | 16.1 | 0.00 | 0.00 | 0.00 | 23 | 1009.8 |
| 20260509222830 | 28 | 171 | 8.0 | 14.5 | 0.00 | 0.00 | 0.00 | 24 | 1009.8 |
| 20260509222613 | 28 | 103 | 4.8 | 11.3 | 0.00 | 0.00 | 0.00 | 23 | 1009.8 |
| 20260509221510 | 28 | 75 | 1.6 | 9.7 | 0.00 | 0.00 | 0.00 | 21 | 1009.8 |
| 20260509221041 | 28 | 347 | 4.8 | 9.7 | 0.00 | 0.00 | 0.00 | 22 | 1009.8 |
| 20260509220150 | 27 | 168 | 1.6 | 11.3 | 0.00 | 0.00 | 0.00 | 24 | 1009.8 |
| 20260509215723 | 27 | 276 | 4.8 | 11.3 | 0.00 | 0.00 | 0.00 | 23 | 1009.8 |
| 20260509214830 | 27 | 291 | 3.2 | 9.7 | 0.00 | 0.00 | 0.00 | 23 | 1009.8 |
| 20260509214150 | 27 | 262 | 6.4 | 14.5 | 0.00 | 0.00 | 0.00 | 25 | 1009.8 |
| 20260509213933 | 27 | 299 | 6.4 | 11.3 | 0.00 | 0.00 | 0.00 | 23 | 1009.8 |
| 20260509212830 | 28 | 222 | 3.2 | 14.5 | 0.00 | 0.00 | 0.00 | 22 | 1009.8 |
| 20260509212150 | 29 | 231 | 1.6 | 8.0 | 0.00 | 0.00 | 0.00 | 21 | 1009.8 |
| 20260509211721 | 28 | 290 | 4.8 | 8.0 | 0.00 | 0.00 | 0.00 | 22 | 1009.8 |
| 20260509210830 | 28 | 56 | 1.6 | 11.3 | 0.00 | 0.00 | 0.00 | 22 | 1009.8 |
| 20260509210150 | 27 | 7 | 4.8 | 11.3 | 0.00 | 0.00 | 0.00 | 23 | 1010.2 |
| 20260509205510 | 27 | 29 | 6.4 | 11.3 | 0.00 | 0.00 | 0.00 | 24 | 1010.2 |
| 20260509204830 | 27 | 4 | 3.2 | 8.0 | 0.00 | 0.00 | 0.00 | 23 | 1010.2 |
| 20260509204150 | 28 | 4 | 1.6 | 8.0 | 0.00 | 0.00 | 0.00 | 24 | 1010.5 |
| 20260509203510 | 28 | 286 | 4.8 | 8.0 | 0.00 | 0.00 | 0.00 | 23 | 1010.5 |
| 20260509202830 | 27 | 201 | 1.6 | 9.7 | 0.00 | 0.00 | 0.00 | 23 | 1010.5 |
| 20260509202150 | 28 | 232 | 3.2 | 12.9 | 0.00 | 0.00 | 0.00 | 22 | 1010.5 |
| 20260509201510 | 28 | 275 | 6.4 | 12.9 | 0.00 | 0.00 | 0.00 | 22 | 1010.5 |
| 20260509200830 | 28 | 254 | 3.2 | 6.4 | 0.00 | 0.00 | 0.00 | 22 | 1010.5 |
| 20260509200403 | 27 | 277 | 1.6 | 14.5 | 0.00 | 0.00 | 0.00 | 22 | 1010.9 |
| 20260509195510 | 27 | 304 | 6.4 | 19.3 | 0.00 | 0.00 | 0.00 | 23 | 1010.9 |
| 20260509194830 | 28 | 326 | 8.0 | 19.3 | 0.00 | 0.00 | 0.00 | 22 | 1010.9 |
| 20260509194150 | 28 | 279 | 3.2 | 16.1 | 0.00 | 0.00 | 0.00 | 22 | 1010.9 |
| 20260509193510 | 28 | 4 | 3.2 | 8.0 | 0.00 | 0.00 | 0.00 | 22 | 1010.9 |
| 20260509192830 | 27 | 105 | 3.2 | 11.3 | 0.00 | 0.00 | 0.00 | 22 | 1010.9 |
| 20260509192150 | 27 | 60 | 4.8 | 19.3 | 0.00 | 0.00 | 0.00 | 22 | 1010.9 |
| 20260509191510 | 27 | 306 | 11.3 | 27.4 | 0.00 | 0.00 | 0.00 | 24 | 1010.9 |
| 20260509190830 | 27 | 275 | 14.5 | 27.4 | 0.00 | 0.00 | 0.00 | 25 | 1010.9 |
| 20260509190150 | 28 | 291 | 4.8 | 9.7 | 0.00 | 0.00 | 0.00 | 22 | 1011.2 |
| 20260509185933 | 27 | 204 | 3.2 | 14.5 | 0.00 | 0.00 | 0.00 | 22 | 1011.2 |
| 20260509185040 | 27 | 314 | 11.3 | 20.9 | 0.00 | 0.00 | 0.00 | 23 | 1011.2 |
| 20260509184150 | 27 | 313 | 8.0 | 16.1 | 0.00 | 0.00 | 0.00 | 25 | 1010.9 |
| 20260509183510 | 27 | 323 | 4.8 | 19.3 | 0.00 | 0.00 | 0.00 | 23 | 1010.9 |
| 20260509183042 | 27 | 287 | 6.4 | 19.3 | 0.00 | 0.00 | 0.00 | 24 | 1010.9 |
| 20260509182403 | 26 | 259 | 6.4 | 24.1 | 0.00 | 0.00 | 0.00 | 23 | 1010.9 |
| 20260509181510 | 26 | 312 | 12.9 | 22.5 | 0.00 | 0.00 | 0.00 | 23 | 1010.9 |
| 20260509180830 | 27 | 318 | 9.7 | 16.1 | 0.00 | 0.00 | 0.00 | 22 | 1011.2 |
| 20260509180400 | 27 | 333 | 4.8 | 19.3 | 0.00 | 0.00 | 0.00 | 22 | 1011.2 |
| 20260509175511 | 26 | 280 | 6.4 | 20.9 | 0.00 | 0.00 | 0.00 | 22 | 1010.9 |
| 20260509175041 | 26 | 63 | 4.8 | 20.9 | 0.00 | 0.00 | 0.00 | 22 | 1010.9 |
| 20260509174150 | 26 | 322 | 11.3 | 20.9 | 0.00 | 0.00 | 0.00 | 24 | 1011.2 |
| 20260509173510 | 26 | 314 | 8.0 | 20.9 | 0.00 | 0.00 | 0.00 | 25 | 1011.2 |
| 20260509172830 | 26 | 321 | 12.9 | 17.7 | 0.00 | 0.00 | 0.00 | 23 | 1011.2 |
| 20260509172150 | 26 | 263 | 6.4 | 16.1 | 0.00 | 0.00 | 0.00 | 25 | 1011.2 |
| 20260509171510 | 26 | 315 | 3.2 | 12.9 | 0.00 | 0.00 | 0.00 | 27 | 1011.2 |
| 20260509170830 | 26 | 309 | 6.4 | 14.5 | 0.00 | 0.00 | 0.00 | 26 | 1011.2 |
| 20260509170150 | 26 | 306 | 6.4 | 14.5 | 0.00 | 0.00 | 0.00 | 28 | 1011.2 |
| 20260509165934 | 25 | 301 | 6.4 | 19.3 | 0.00 | 0.00 | 0.00 | 27 | 1011.2 |
| 20260509165042 | 25 | 289 | 8.0 | 17.7 | 0.00 | 0.00 | 0.00 | 30 | 1011.2 |
| 20260509164402 | 25 | 323 | 6.4 | 16.1 | 0.00 | 0.00 | 0.00 | 33 | 1011.2 |
| 20260509163723 | 25 | 275 | 6.4 | 14.5 | 0.00 | 0.00 | 0.00 | 32 | 1011.6 |
| 20260509162830 | 25 | 291 | 8.0 | 16.1 | 0.00 | 0.00 | 0.00 | 34 | 1011.6 |
| 20260509162150 | 24 | 291 | 9.7 | 16.1 | 0.00 | 0.00 | 0.00 | 36 | 1011.2 |
| 20260509161720 | 24 | 321 | 6.4 | 12.9 | 0.00 | 0.00 | 0.00 | 38 | 1011.6 |
| 20260509161040 | 23 | 330 | 8.0 | 12.9 | 0.00 | 0.00 | 0.00 | 39 | 1011.2 |
| 20260509160150 | 23 | 330 | 6.4 | 12.9 | 0.00 | 0.00 | 0.00 | 39 | 1011.6 |
| 20260509155510 | 23 | 322 | 6.4 | 17.7 | 0.00 | 0.00 | 0.00 | 40 | 1011.6 |
| 20260509154830 | 23 | 314 | 11.3 | 17.7 | 0.00 | 0.00 | 0.00 | 35 | 1011.2 |
| 20260509154150 | 23 | 319 | 11.3 | 17.7 | 0.00 | 0.00 | 0.00 | 39 | 1011.2 |